DW4360 Weather Reports


time (UTC)temp
F
wind
direction
speed
knots
gust
knots
rain 1hr
in
rain 24hr
in
rain mn
in
humidity
%
barometer
mb
20260904052324 56 169 0.0 0.0 0.00 0.00 0.03 89 1009.1
20260904051323 56 169 0.0 0.0 0.00 0.00 0.03 88 1009.1
20260904050322 56 169 0.0 0.0 0.00 0.00 0.03 88 1009.2
20260904044321 57 169 0.0 0.0 0.00 0.00 0.03 88 1009.2
20260904043319 57 169 0.0 0.0 0.00 0.00 0.03 87 1009.2
20260904042318 57 169 0.0 0.0 0.00 0.00 0.03 87 1009.3
20260904041317 57 169 0.0 0.0 0.00 0.00 0.03 87 1009.1
20260904040316 57 169 0.0 0.0 0.00 0.00 0.03 86 1009.2
20260904035315 57 169 0.0 0.0 0.00 0.00 0.03 86 1009.2
20260904034314 58 169 0.0 0.0 0.00 0.00 0.03 86 1009.1
20260904032312 58 169 0.0 0.0 0.00 0.00 0.03 85 1008.9
20260904031311 58 169 0.0 0.0 0.00 0.00 0.03 83 1008.8
20260904030310 59 169 0.0 0.0 0.00 0.00 0.03 82 1008.6
20260904025309 59 169 0.0 0.0 0.00 0.00 0.03 81 1008.6
20260904024308 59 169 0.0 0.0 0.00 0.00 0.03 81 1008.5
20260904023307 60 169 0.0 0.0 0.00 0.00 0.03 81 1008.5
20260904020304 60 169 0.0 0.0 0.00 0.00 0.03 80 1008.5
20260904014302 61 170 4.3 0.0 0.00 0.00 0.03 78 1008.6
20260904012300 60 190 0.0 0.0 0.00 0.00 0.03 79 1008.6
20260904011259 60 198 0.0 0.0 0.00 0.00 0.03 80 1008.7
20260904010258 60 184 0.0 0.0 0.00 0.00 0.03 78 1008.6
20260904005257 60 184 0.0 0.0 0.00 0.00 0.03 74 1008.5
20260904004256 61 182 0.0 0.0 0.00 0.00 0.03 74 1008.5
20260904003255 61 232 0.0 0.0 0.00 0.00 0.03 73 1008.5
20260904002254 61 262 0.0 0.0 0.00 0.00 0.03 74 1008.6
20260904001253 61 203 0.0 0.0 0.00 0.00 0.03 78 1008.6
20260904000252 60 202 0.9 0.0 0.00 0.00 0.03 80 1008.7
20260903235251 59 202 0.0 0.0 0.00 0.00 0.03 81 1008.7
20260903234250 59 202 0.0 0.0 0.00 0.00 0.03 82 1008.8
20260903233249 59 202 0.0 0.0 0.00 0.00 0.03 81 1008.8
20260903232248 59 226 0.0 0.0 0.00 0.00 0.03 80 1008.8
20260903231247 60 226 0.0 0.0 0.00 0.00 0.03 78 1009.1
20260903230245 60 216 1.7 0.0 0.00 0.00 0.03 77 1009.2
20260903225245 61 206 2.6 0.0 0.00 0.00 0.03 75 1009.2
20260903224244 62 194 0.0 0.0 0.00 0.00 0.03 73 1009.2
20260903223243 62 244 0.0 0.0 0.00 0.00 0.03 71 1009.0
20260903222242 63 232 0.0 0.0 0.00 0.00 0.03 70 1009.0
20260903221240 63 225 5.2 0.0 0.00 0.00 0.03 71 1008.9
20260903220240 64 250 2.6 0.0 0.00 0.00 0.03 69 1008.9
20260903215239 64 181 3.5 0.0 0.00 0.00 0.03 70 1008.9
20260903213237 63 226 0.0 0.0 0.00 0.00 0.03 70 1008.9
20260903212236 63 286 0.0 0.0 0.00 0.00 0.03 70 1009.1
20260903211234 63 234 2.6 0.0 0.00 0.00 0.03 69 1009.1
20260903210234 63 277 1.7 0.0 0.00 0.00 0.03 73 1009.0
20260903205233 63 195 4.3 0.0 0.00 0.00 0.03 74 1008.9
20260903204231 63 223 0.9 0.0 0.00 0.00 0.03 72 1008.9
20260903202230 63 192 3.5 0.0 0.00 0.00 0.03 75 1008.9
20260903200228 64 252 3.5 0.0 0.00 0.00 0.03 72 1008.9
20260903195227 63 242 0.0 0.0 0.00 0.00 0.03 75 1008.9
20260903194225 63 180 3.5 0.0 0.00 0.00 0.03 75 1008.9
20260903192223 62 279 1.7 0.0 0.00 0.00 0.03 77 1009.0
20260903191222 62 194 1.7 0.0 0.00 0.00 0.03 79 1009.1
20260903190221 61 229 0.0 0.0 0.00 0.00 0.03 84 1009.1
20260903185220 60 217 4.3 0.0 0.00 0.00 0.03 84 1009.1
20260903184219 60 265 0.0 0.0 0.00 0.00 0.03 84 1009.2
20260903182218 61 219 2.6 0.0 0.00 0.00 0.03 84 1009.1
20260903180215 62 209 0.0 0.0 0.00 0.00 0.03 86 1009.0
20260903175214 62 229 0.0 0.0 0.00 0.00 0.03 84 1009.0
20260903174213 63 180 0.0 0.0 0.00 0.00 0.03 82 1009.0
20260903172211 61 180 0.0 0.0 0.00 0.00 0.03 92 1009.0
20260903170209 59 192 0.0 0.0 0.00 0.00 0.03 94 1009.1
20260903165208 58 209 0.0 0.0 0.00 0.00 0.03 94 1009.3
20260903164207 57 209 0.0 0.0 0.00 0.00 0.03 94 1009.4
20260903163206 56 209 0.0 0.0 0.00 0.00 0.03 94 1009.4
20260903162205 56 209 0.0 0.0 0.00 0.00 0.03 93 1009.3
20260903161204 56 209 0.0 0.0 0.00 0.00 0.03 93 1009.3
20260903160203 56 209 0.0 0.0 0.00 0.00 0.02 93 1009.4
20260903155202 56 221 0.0 0.0 0.00 0.00 0.01 93 1009.3
20260903154201 56 196 0.0 0.0 0.00 0.00 0.01 93 1009.3
20260903153200 56 194 3.5 0.0 0.00 0.00 0.41 93 1009.2
20260903152159 55 192 0.0 0.0 0.00 0.00 0.41 93 1009.2
20260903145156 55 223 2.6 0.0 0.00 0.00 0.39 93 1009.0
20260903144155 55 198 0.9 0.0 0.00 0.00 0.38 93 1009.0
20260903143154 55 205 0.0 0.0 0.00 0.00 0.37 93 1008.9
20260903142153 55 194 0.0 0.0 0.00 0.00 0.36 93 1008.8
20260903135150 55 184 0.0 0.0 0.00 0.00 0.34 92 1008.6
20260903133148 55 200 0.0 0.0 0.00 0.00 0.33 92 1008.6
20260903132147 55 200 0.0 0.0 0.00 0.00 0.31 91 1008.5
20260903131146 55 199 0.0 0.0 0.00 0.00 0.30 91 1008.5
20260903130145 55 199 0.0 0.0 0.00 0.00 0.30 90 1008.5
20260903124143 55 199 0.0 0.0 0.00 0.00 0.28 89 1008.6
20260903123142 55 206 0.0 0.0 0.00 0.00 0.28 90 1008.4
20260903122141 55 197 0.0 0.0 0.00 0.00 0.28 90 1008.5
20260903121140 55 188 0.0 0.0 0.00 0.00 0.28 90 1008.5
20260903120138 55 200 0.0 0.0 0.00 0.00 0.28 90 1008.6
20260903115138 55 200 2.6 0.0 0.00 0.00 0.28 90 1008.6
20260903114137 55 221 0.0 0.0 0.00 0.00 0.28 90 1008.6
20260903113136 55 197 0.0 0.0 0.00 0.00 0.28 91 1008.5
20260903112136 55 208 0.0 0.0 0.00 0.00 0.28 91 1008.4
20260903111134 55 208 2.6 0.0 0.00 0.00 0.28 91 1008.5
20260903110133 55 217 2.6 0.0 0.00 0.00 0.28 91 1008.5
20260903105131 55 200 0.0 0.0 0.00 0.00 0.28 91 1008.5
20260903104131 56 209 0.0 0.0 0.00 0.00 0.28 92 1008.6
20260903103130 56 207 0.0 0.0 0.00 0.00 0.28 92 1008.7
20260903102129 55 188 0.0 0.0 0.00 0.00 0.28 92 1008.7
20260903101127 55 188 0.0 0.0 0.00 0.00 0.28 92 1008.5
20260903100127 55 186 0.0 0.0 0.00 0.00 0.28 92 1008.4
20260903095126 56 186 0.0 0.0 0.00 0.00 0.28 92 1008.3
20260903094124 56 186 0.0 0.0 0.00 0.00 0.28 92 1008.3
20260903093123 56 186 0.0 0.0 0.00 0.00 0.28 93 1008.4
20260903092122 56 186 0.0 0.0 0.00 0.00 0.28 93 1008.4
20260903090120 56 186 0.0 0.0 0.00 0.00 0.28 93 1008.6
20260903085119 56 186 0.0 0.0 0.00 0.00 0.28 93 1008.6
20260903084119 56 186 0.0 0.0 0.00 0.00 0.28 93 1008.7
20260903083117 56 186 0.0 0.0 0.00 0.00 0.27 92 1008.7
20260903081116 56 185 0.0 0.0 0.00 0.00 0.27 92 1008.7
20260903080115 56 198 0.0 0.0 0.00 0.00 0.27 92 1008.8
20260903075113 56 198 0.0 0.0 0.00 0.00 0.27 92 1008.8
20260903074112 56 195 0.9 0.0 0.00 0.00 0.27 92 1008.8
20260903073112 56 200 0.0 0.0 0.00 0.00 0.26 92 1008.8
20260903072111 57 209 0.0 0.0 0.00 0.00 0.26 92 1008.7
20260903071109 57 208 0.0 0.0 0.00 0.00 0.26 91 1008.7
20260903070109 57 199 3.5 0.0 0.00 0.00 0.26 91 1008.6
20260903064106 57 229 1.7 0.0 0.00 0.00 0.26 91 1008.6
20260903063105 57 244 5.2 0.0 0.00 0.00 0.26 92 1008.7
20260903062104 57 215 0.0 0.0 0.00 0.00 0.26 92 1008.6
20260903061103 57 240 0.0 0.0 0.00 0.00 0.26 92 1008.7
20260903055101 57 211 0.0 0.0 0.00 0.00 0.26 91 1008.6
20260903054101 57 230 0.0 0.0 0.00 0.00 0.26 92 1008.5
20260903053059 57 225 0.0 0.0 0.00 0.00 0.26 92 1008.6